EW1940 Weather Reports


Display with metric or nautical units.
time (UTC)temp
F
wind
direction
speed
MPH
gust
MPH
rain 1hr
in
rain 24hr
in
rain mn
in
humidity
%
barometer
mb
20260903112515 73 248 7.0 15.0 0.00 0.03 0.00 84 1019.0
20260903111535 73 270 8.0 17.0 0.00 0.03 0.00 82 1019.0
20260903110515 74 248 7.0 14.0 0.00 0.03 0.00 80 1019.0
20260903105517 74 248 9.0 16.0 0.00 0.03 0.00 80 1018.9
20260903104517 74 248 7.0 16.0 0.00 0.03 0.00 78 1018.9
20260903103540 75 248 6.0 13.0 0.00 0.03 0.00 77 1018.9
20260903102537 74 248 7.0 14.0 0.00 0.03 0.00 78 1018.9
20260903101517 74 248 7.0 15.0 0.00 0.03 0.00 79 1018.8
20260903100517 73 270 6.0 14.0 0.00 0.03 0.00 81 1018.8
20260903095520 72 248 5.0 11.0 0.00 0.03 0.00 84 1018.9
20260903094519 71 270 7.0 17.0 0.00 0.03 0.00 86 1018.8
20260903093518 71 248 5.0 12.0 0.00 0.03 0.00 87 1018.8
20260903092517 70 248 5.0 13.0 0.00 0.03 0.00 87 1018.6
20260903091537 70 293 5.0 14.0 0.00 0.03 0.00 87 1018.8
20260903090519 71 270 6.0 14.0 0.00 0.03 0.00 86 1018.9
20260903085519 71 248 6.0 14.0 0.00 0.03 0.00 85 1018.7
20260903084515 72 248 6.0 14.0 0.00 0.03 0.00 85 1018.6
20260903083517 72 248 7.0 14.0 0.00 0.03 0.00 85 1018.5
20260903082518 71 248 9.0 15.0 0.00 0.03 0.00 86 1018.5
20260903081537 71 248 9.0 14.0 0.00 0.03 0.00 87 1018.3
20260903080517 70 248 6.0 12.0 0.00 0.03 0.00 88 1018.4
20260903075537 70 248 7.0 14.0 0.00 0.03 0.00 89 1018.3
20260903074517 69 248 6.0 11.0 0.00 0.03 0.00 92 1018.2
20260903073517 68 248 6.0 13.0 0.00 0.03 0.00 92 1018.2
20260903072518 68 248 6.0 13.0 0.00 0.03 0.00 92 1018.1
20260903071538 68 270 7.0 14.0 0.00 0.03 0.00 92 1018.3
20260903070539 68 225 5.0 11.0 0.00 0.03 0.00 92 1018.2
20260903065518 68 248 5.0 9.0 0.00 0.03 0.00 92 1018.2
20260903064538 68 248 6.0 11.0 0.00 0.03 0.00 93 1018.3
20260903063518 67 248 4.0 11.0 0.00 0.03 0.00 93 1018.1
20260903062518 67 248 5.0 13.0 0.00 0.03 0.00 93 1018.1
20260903061517 67 248 5.0 10.0 0.00 0.03 0.00 93 1017.9
20260903060517 67 248 5.0 11.0 0.00 0.03 0.00 93 1018.0
20260903055518 67 248 5.0 11.0 0.00 0.03 0.00 92 1017.9
20260903054517 67 248 5.0 11.0 0.00 0.03 0.00 92 1018.0
20260903053518 67 293 6.0 11.0 0.00 0.03 0.00 92 1018.0
20260903052517 67 270 5.0 14.0 0.00 0.03 0.00 92 1017.6
20260903051516 67 270 4.0 12.0 0.00 0.03 0.00 92 1017.7
20260903050517 67 248 6.0 16.0 0.00 0.03 0.00 92 1017.5
20260903045517 67 248 5.0 11.0 0.00 0.03 0.00 92 1017.5
20260903044517 67 225 7.0 16.0 0.00 0.03 0.00 92 1017.3
20260903043517 67 248 5.0 10.0 0.00 0.03 0.00 92 1017.3
20260903042520 67 248 5.0 14.0 0.00 0.03 0.00 92 1017.2
20260903041518 67 248 6.0 13.0 0.00 0.03 0.00 92 1017.1
20260903040518 67 248 8.0 18.0 0.00 0.03 0.00 92 1017.3
20260903035518 67 248 6.0 13.0 0.00 0.03 0.00 92 1017.3
20260903034517 67 248 5.0 12.0 0.00 0.03 0.00 92 1017.3
20260903033518 67 225 8.0 16.0 0.00 0.03 0.00 92 1017.3
20260903032516 67 248 7.0 16.0 0.00 0.03 0.00 92 1017.3
20260903031518 67 248 6.0 14.0 0.00 0.03 0.00 92 1017.1
20260903030516 67 248 6.0 16.0 0.00 0.03 0.00 92 1017.5
20260903025516 67 248 6.0 13.0 0.00 0.03 0.00 92 1017.3
20260903024516 67 248 7.0 16.0 0.00 0.03 0.00 92 1017.4
20260903023517 67 248 5.0 11.0 0.00 0.03 0.00 92 1017.7
20260903022518 67 248 6.0 16.0 0.00 0.03 0.00 92 1017.4
20260903021517 67 248 7.0 13.0 0.00 0.03 0.00 92 1017.6
20260903020516 67 248 7.0 13.0 0.00 0.03 0.00 92 1017.4
20260903015520 67 248 7.0 16.0 0.00 0.03 0.00 92 1017.2
20260903014516 67 225 6.0 13.0 0.00 0.03 0.00 92 1017.7
20260903013518 66 225 5.0 14.0 0.00 0.03 0.00 92 1017.6
20260903012518 66 248 7.0 13.0 0.00 0.03 0.00 91 1017.7
20260903011516 66 248 6.0 13.0 0.00 0.03 0.00 91 1017.7
20260903010518 66 248 7.0 16.0 0.00 0.03 0.00 91 1017.7
20260903005518 66 270 6.0 13.0 0.00 0.03 0.00 91 1018.0
20260903004519 66 270 6.0 14.0 0.00 0.03 0.00 91 1018.1
20260903003516 66 248 7.0 13.0 0.00 0.03 0.00 91 1018.2
20260903002516 66 248 7.0 14.0 0.00 0.03 0.00 91 1018.1
20260903001516 66 270 6.0 11.0 0.00 0.03 0.00 91 1018.0
20260903000518 66 248 7.0 14.0 0.00 0.03 0.00 91 1018.0
20260902235518 66 248 8.0 18.0 0.00 0.03 0.00 91 1018.0
20260902234519 67 248 7.0 14.0 0.00 0.03 0.00 91 1018.0
20260902233516 67 248 5.0 12.0 0.00 0.03 0.00 91 1018.1
20260902232518 67 270 4.0 9.0 0.00 0.03 0.00 91 1018.2
20260902231518 66 270 5.0 11.0 0.00 0.03 0.00 91 1018.3
20260902230516 67 270 5.0 12.0 0.00 0.03 0.00 92 1018.4
20260902225518 67 248 4.0 8.0 0.00 0.03 0.03 92 1018.5
20260902224516 66 270 6.0 12.0 0.00 0.03 0.03 92 1018.5
20260902223517 66 248 5.0 15.0 0.00 0.03 0.03 92 1018.4
20260902222516 66 248 6.0 13.0 0.00 0.03 0.03 92 1018.4
20260902221559 66 248 7.0 15.0 0.00 0.03 0.03 92 1018.3
20260902220536 67 225 8.0 13.0 0.00 0.03 0.03 92 1018.0
20260902215517 67 248 6.0 12.0 0.00 0.03 0.03 92 1018.0
20260902214516 66 248 7.0 13.0 0.00 0.03 0.03 92 1018.1
20260902213518 66 248 6.0 11.0 0.00 0.03 0.03 92 1018.0
20260902212516 66 248 4.0 10.0 0.00 0.03 0.03 92 1018.3
20260902211517 67 248 6.0 14.0 0.00 0.03 0.03 92 1018.4
20260902210536 67 248 6.0 11.0 0.00 0.03 0.03 93 1018.4
20260902205517 67 225 6.0 13.0 0.00 0.03 0.03 93 1018.1
20260902204516 66 248 5.0 11.0 0.00 0.03 0.03 93 1018.2
20260902203516 66 248 7.0 13.0 0.01 0.03 0.03 93 1018.1
20260902202516 66 248 8.0 12.0 0.01 0.03 0.03 93 1018.1
20260902201519 66 248 6.0 12.0 0.01 0.03 0.03 93 1018.1
20260902200516 66 248 6.0 16.0 0.01 0.03 0.03 93 1018.2
20260902195517 66 225 7.0 14.0 0.01 0.03 0.03 93 1018.2
20260902194516 66 248 7.0 15.0 0.01 0.03 0.03 93 1018.3
20260902193517 66 225 7.0 13.0 0.00 0.02 0.02 93 1018.2
20260902192517 66 225 7.0 13.0 0.00 0.02 0.02 93 1018.1
20260902191517 66 248 9.0 16.0 0.00 0.02 0.02 93 1017.9
20260902190517 66 225 9.0 17.0 0.00 0.02 0.02 93 1017.8
20260902185516 66 248 6.0 12.0 0.01 0.02 0.02 93 1017.9
20260902184519 66 248 9.0 17.0 0.01 0.02 0.02 93 1018.0
20260902183519 66 248 6.0 14.0 0.01 0.02 0.02 93 1017.9
20260902182515 66 225 8.0 15.0 0.01 0.02 0.02 93 1017.9
20260902181515 67 225 7.0 16.0 0.01 0.02 0.02 93 1017.9
20260902180516 66 225 8.0 16.0 0.01 0.02 0.02 93 1017.9
20260902175515 66 248 8.0 16.0 0.01 0.02 0.02 93 1018.0
20260902174516 66 225 11.0 19.0 0.01 0.02 0.02 93 1018.1
20260902173517 66 225 9.0 21.0 0.01 0.02 0.02 93 1018.1
20260902172516 66 225 11.0 20.0 0.01 0.02 0.02 93 1018.0
20260902171515 66 225 10.0 20.0 0.01 0.02 0.02 93 1017.9
20260902170556 66 225 11.0 18.0 0.02 0.02 0.02 92 1018.1
20260902165517 66 225 11.0 17.0 0.01 0.01 0.01 92 1018.1
20260902164536 66 225 12.0 20.0 0.01 0.01 0.01 92 1018.1
20260902163516 65 225 9.0 18.0 0.01 0.01 0.01 91 1018.3
20260902162517 65 225 11.0 23.0 0.01 0.01 0.01 91
20260902161517 65 248 12.0 23.0 0.01 0.01 0.01 91
20260902160517 66 225 11.0 22.0 0.00 0.00 0.00 90
20260902155515 66 225 8.0 17.0 0.00 0.00 0.00 89 1018.6
20260902154535 66 225 11.0 17.0 0.00 0.00 0.00 88 1018.7
20260902153537 66 225 8.0 19.0 0.00 0.00 0.00 86 1018.9
20260902152516 67 225 11.0 20.0 0.00 0.00 0.00 84 1019.1
20260902151515 68 225 11.0 22.0 0.00 0.00 0.00 80 1019.2
20260902150515 69 225 10.0 19.0 0.00 0.00 0.00 78 1019.3
20260902145515 69 248 9.0 19.0 0.00 0.00 0.00 75 1019.3
20260902144515 69 225 11.0 20.0 0.00 0.00 0.00 75 1019.1
20260902143515 69 248 10.0 18.0 0.00 0.00 0.00 75 1019.3
20260902142515 70 225 10.0 19.0 0.00 0.00 0.00 73 1019.3
20260902141515 70 225 8.0 21.0 0.00 0.00 0.00 72 1019.5
20260902140515 71 248 10.0 17.0 0.00 0.00 0.00 70 1019.5
20260902135517 71 225 11.0 23.0 0.00 0.00 0.00 67 1019.4
20260902134517 71 225 11.0 22.0 0.00 0.00 0.00 67 1019.4
20260902133517 71 225 10.0 20.0 0.00 0.00 0.00 69 1019.6
20260902132519 70 225 11.0 20.0 0.00 0.00 0.00 70 1019.7
20260902131518 70 225 9.0 15.0 0.00 0.00 0.00 72 1019.9
20260902130519 70 225 9.0 16.0 0.00 0.00 0.00 72 1019.8
20260902125600 69 225 9.0 19.0 0.00 0.00 0.00 72 1019.9
20260902124519 69 203 10.0 18.0 0.00 0.00 0.00 72 1020.0
20260902123517 69 225 9.0 15.0 0.00 0.00 0.00 73 1020.2
20260902122518 69 248 10.0 21.0 0.00 0.00 0.00 72 1020.2
20260902121537 68 225 9.0 21.0 0.00 0.00 0.00 71 1020.1
20260902120539 68 225 10.0 19.0 0.00 0.00 0.00 71 1020.2
20260902115519 68 225 8.0 17.0 0.00 0.00 0.00 72 1020.2
20260902114518 69 248 9.0 17.0 0.00 0.00 0.00 71 1020.2
20260902113519 69 225 9.0 18.0 0.00 0.00 0.00 73 1020.4